Weather History for Morgantown, WV

Change the Weather History Date:

Monday, February 3, 2014

  Actual Average Record
Temperature  
Mean Temperature 28 °F 32 °F  
Max Temperature 30 °F 40 °F 59 °F (1991)
Min Temperature 26 °F 24 °F 0 °F (1951)
Degree Days  
Heating Degree Days 37 33  
Month to date heating degree days 83 99  
Since 1 July heating degree days 3201 3126  
Cooling Degree Days 0 0  
Month to date cooling degree days 0 0  
Year to date cooling degree days 0 0  
Moisture  
Dew Point 25 °F    
Average Humidity 91    
Maximum Humidity 100    
Minimum Humidity 81    
Precipitation  
Precipitation 0.72 in 0.09 in 0.81 in (2004)
Month to date precipitation 1.17 0.27  
Year to date precipitation 2.99 3.08  
Sea Level Pressure  
Sea Level Pressure 30.16 in    
Wind  
Wind Speed 5 mph (North)    
Max Wind Speed 13 mph    
Max Gust Speed 18 mph    
Visibility 3 miles    
Events Fog , Snow    
T = Trace of Precipitation, MM = Missing Value Source: NWS Daily Summary

Daily Weather History Graph

Daily Weather History Graph

Search for Another Location

Airport:

Trip Planner

Search our weather history database for the weather conditions in past years. The results will help you decide how hot, cold, wet, or windy it might be!

Date:

Astronomy

Feb. 03, 2014 Rise Set
Actual Time 7:25 AM EST 5:42 PM EST
Civil Twilight 6:57 AM EST 6:10 PM EST
Nautical Twilight 6:25 AM EST 6:42 PM EST
Astronomical Twilight 5:53 AM EST 7:14 PM EST
Moon 9:27 AM EST (2/3) 10:29 PM EST (2/3)
Length of Visible Light 11h 13m
Length of Day
10h 16m
Waxing Crescent, 19% of the Moon is Illuminated
Feb 3
Waxing Crescent
Feb 6
First Quarter
Feb 14
Full
Feb 22
Last Quarter
Mar 1
New

Hourly Weather History & Observations

Time (EST) Temp. Windchill Dew Point Humidity Pressure Visibility Wind Dir Wind Speed Gust Speed Precip Events Conditions
12:40 AM 30.2 °F 24.3 °F 28.4 °F 93% 30.12 in 1.0 mi North 5.8 mph - 0.05 in Snow Light Snow
12:50 AM 30.2 °F 25.4 °F 28.4 °F 93% 30.12 in 1.0 mi North 4.6 mph - 0.06 in Snow Light Snow
12:53 AM 30.0 °F 25.2 °F 28.9 °F 96% 30.15 in 1.0 mi North 4.6 mph - 0.06 in Snow Light Snow
1:00 AM 30.2 °F 23.4 °F 28.4 °F 93% 30.12 in 0.8 mi North 6.9 mph - 0.01 in Snow Light Snow
1:15 AM 30.2 °F 23.4 °F 28.4 °F 93% 30.12 in 1.0 mi North 6.9 mph - 0.03 in Snow Light Snow
1:33 AM 28.4 °F 22.2 °F 28.4 °F 100% 30.11 in 0.8 mi North 5.8 mph - 0.05 in Snow Light Snow
1:40 AM 28.4 °F 21.2 °F 28.4 °F 100% 30.11 in 1.0 mi North 6.9 mph - 0.06 in Snow Light Snow
1:53 AM 28.9 °F 20.4 °F 28.0 °F 96% 30.14 in 0.8 mi North 9.2 mph - 0.08 in Snow Light Snow
2:00 AM 28.4 °F 20.4 °F 28.4 °F 100% 30.11 in 0.8 mi North 8.1 mph - 0.01 in Snow Light Snow
2:49 AM 28.4 °F 20.4 °F 26.6 °F 93% 30.07 in 0.5 mi North 8.1 mph - 0.10 in Fog , Snow Snow
2:53 AM 28.0 °F 18.6 °F 27.0 °F 96% 30.11 in 0.5 mi North 10.4 mph - 0.11 in Fog , Snow Snow
3:00 AM 28.4 °F 20.4 °F 26.6 °F 93% 30.07 in 0.5 mi North 8.1 mph - 0.01 in Fog , Snow Snow
3:23 AM 28.4 °F 20.4 °F 26.6 °F 93% 30.07 in 1.0 mi North 8.1 mph - 0.04 in Snow Light Snow
3:36 AM 28.4 °F 22.2 °F 26.6 °F 93% 30.07 in 0.8 mi North 5.8 mph - 0.06 in Snow Light Snow
3:53 AM 28.0 °F 18.6 °F 27.0 °F 96% 30.11 in 0.8 mi NNE 10.4 mph - 0.08 in Snow Light Snow
4:14 AM 28.4 °F 19.7 °F 26.6 °F 93% 30.06 in 1.0 mi North 9.2 mph - 0.03 in Snow Light Snow
4:33 AM 28.4 °F 19.7 °F 26.6 °F 93% 30.06 in 0.8 mi NNE 9.2 mph - 0.06 in Snow Light Snow
4:53 AM 27.0 °F 18.0 °F 26.1 °F 96% 30.09 in 0.8 mi NNE 9.2 mph - 0.09 in Snow Light Snow
5:35 AM 26.6 °F 17.5 °F 26.6 °F 100% 30.03 in 1.0 mi North 9.2 mph - 0.06 in Snow Light Snow
5:53 AM 27.0 °F 18.7 °F 26.1 °F 96% 30.07 in 1.2 mi North 8.1 mph - 0.07 in Snow Light Snow
6:44 AM 26.6 °F 19.1 °F 26.6 °F 100% 30.04 in 0.8 mi NNE 6.9 mph - 0.05 in Snow Light Snow
6:53 AM 27.0 °F 19.5 °F 26.1 °F 96% 30.08 in 1.0 mi NNE 6.9 mph - 0.06 in Snow Light Snow
7:20 AM 26.6 °F 20.0 °F 26.6 °F 100% 30.08 in 0.8 mi North 5.8 mph - 0.03 in Snow Light Snow
7:36 AM 26.6 °F 19.1 °F 26.6 °F 100% 30.07 in 1.0 mi North 6.9 mph - 0.05 in Snow Light Snow
7:53 AM 27.0 °F 18.7 °F 25.0 °F 92% 30.10 in 0.8 mi North 8.1 mph - 0.06 in Snow Light Snow
8:06 AM 26.6 °F 17.5 °F 24.8 °F 93% 30.06 in 0.5 mi North 9.2 mph - 0.00 in Fog , Snow Light Snow
8:16 AM 26.6 °F 18.2 °F 24.8 °F 93% 30.11 in 0.5 mi NNW 8.1 mph - 0.01 in Fog , Snow Light Snow
8:41 AM 26.6 °F 19.1 °F 24.8 °F 93% 30.12 in 0.5 mi North 6.9 mph - 0.03 in Fog , Snow Light Snow
8:53 AM 26.1 °F 18.4 °F 25.0 °F 96% 30.18 in 0.5 mi North 6.9 mph - 0.05 in Fog , Snow Light Snow
9:02 AM 26.6 °F 16.8 °F 24.8 °F 93% 30.11 in 0.8 mi North 10.4 mph - 0.00 in Snow Light Snow
9:09 AM 26.6 °F 21.2 °F 24.8 °F 93% 30.13 in 1.0 mi North 4.6 mph - 0.00 in Snow Light Snow
9:20 AM 26.6 °F 20.0 °F 24.8 °F 93% 30.13 in 1.2 mi North 5.8 mph - 0.01 in Snow Light Snow
9:53 AM 26.1 °F 19.4 °F 24.1 °F 92% 30.18 in 1.2 mi North 5.8 mph - 0.01 in Snow Light Snow
10:31 AM 26.6 °F 18.2 °F 24.8 °F 93% 30.16 in 1.0 mi North 8.1 mph - 0.02 in Snow Light Snow
10:36 AM 26.6 °F 17.5 °F 24.8 °F 93% 30.16 in 0.8 mi North 9.2 mph - 0.02 in Snow Light Snow
10:53 AM 27.0 °F 18.0 °F 25.0 °F 92% 30.22 in 0.8 mi North 9.2 mph - 0.03 in Snow Light Snow
11:33 AM 26.6 °F 20.0 °F 24.8 °F 93% 30.17 in 1.0 mi North 5.8 mph - 0.02 in Snow Light Snow
11:41 AM 26.6 °F 21.2 °F 24.8 °F 93% 30.17 in 0.8 mi NNW 4.6 mph - 0.02 in Snow Light Snow
11:53 AM 27.0 °F 20.5 °F 25.0 °F 92% 30.21 in 1.0 mi North 5.8 mph - 0.02 in Snow Light Snow
12:21 PM 26.6 °F 19.1 °F 24.8 °F 93% 30.17 in 2.0 mi NNW 6.9 mph - 0.00 in   Overcast
12:49 PM 26.6 °F 19.1 °F 23.0 °F 86% 30.17 in 4.0 mi North 6.9 mph - 0.00 in   Overcast
12:53 PM 27.0 °F 18.7 °F 23.0 °F 85% 30.22 in 3.0 mi NNW 8.1 mph - 0.00 in   Overcast
12:57 PM 26.6 °F 17.5 °F 23.0 °F 86% 30.18 in 2.5 mi NNW 9.2 mph - 0.00 in Snow Light Snow
1:14 PM 26.6 °F 16.8 °F 21.2 °F 80% 30.17 in 4.0 mi North 10.4 mph - 0.00 in   Haze
1:34 PM 26.6 °F 19.1 °F 23.0 °F 86% 30.18 in 1.8 mi NNW 6.9 mph - 0.01 in Snow Light Snow
1:53 PM 27.0 °F 20.5 °F 23.0 °F 85% 30.22 in 1.5 mi NNW 5.8 mph - 0.01 in Snow Light Snow
2:19 PM 26.6 °F 21.2 °F 23.0 °F 86% 30.18 in 3.0 mi North 4.6 mph - 0.00 in   Overcast
2:53 PM 27.0 °F 21.6 °F 23.0 °F 85% 30.23 in 10.0 mi NNW 4.6 mph - 0.00 in   Overcast
3:53 PM 27.0 °F 23.0 °F 21.9 °F 81% 30.28 in 10.0 mi North 3.5 mph - N/A   Overcast
4:53 PM 27.0 °F 23.0 °F 21.9 °F 81% 30.29 in 10.0 mi NNE 3.5 mph - N/A   Overcast
5:53 PM 26.1 °F 21.9 °F 21.9 °F 84% 30.30 in 10.0 mi NNE 3.5 mph - N/A   Overcast
6:53 PM 26.1 °F - 21.9 °F 84% 30.34 in 10.0 mi Calm Calm - N/A   Overcast
7:53 PM 26.1 °F - 23.0 °F 88% 30.34 in 10.0 mi Calm Calm - N/A   Overcast
8:53 PM 26.1 °F - 23.0 °F 88% 30.35 in 10.0 mi Calm Calm - N/A   Overcast
9:53 PM 26.1 °F - 23.0 °F 88% 30.37 in 9.0 mi Calm Calm - N/A   Overcast
10:53 PM 26.1 °F - 24.1 °F 92% 30.36 in 8.0 mi Calm Calm - N/A   Overcast
11:53 PM 26.1 °F - 24.1 °F 92% 30.35 in 8.0 mi Calm Calm - N/A   Overcast